EW7355 Oak Hill VA US current weather conditions

sailwx.info

Wind from 035 at 1 knots gusting 7

Air temperature 28.9° C
Dewpoint 22.4° C

Last reported at 2020-Aug-14 17:08 UTC.
Time now 2020-Aug-14 17:58 UTC

Location: N 38°55' W 077°25'.
View on Google Maps.

See reports from other nearby stations

  
Tides and Currents Weather Stations Pressure Air Temp Water Temp Dewpoint Dewpoint Depression Visibility Wind Speed Wind Dir Waves Ship Positions
date/time (UTC)wind fromknots sea level pressurealtimeterstation pressurevisibilityair tempwater tempwave heightnotes
2020-Aug-14 17:08 035 1 gusting 7 28.9
2020-Aug-14 17:03 297 1 gusting 5 28.9
2020-Aug-14 16:58 070 1 gusting 5 28.3
2020-Aug-14 16:53 333 1 gusting 8 28.3
2020-Aug-14 16:48 325 2 gusting 8 28.3
2020-Aug-14 16:43 343 1 gusting 7 28.9
2020-Aug-14 16:38 295 1 gusting 7 28.9
2020-Aug-14 16:33 037 0 gusting 6 28.3
2020-Aug-14 16:28 148 1 gusting 11 28.3
2020-Aug-14 16:23 038 1 gusting 11 27.8
2020-Aug-14 16:18 347 0 gusting 4 27.8
2020-Aug-14 16:13 343 1 gusting 6 27.2
2020-Aug-14 16:08 320 1 gusting 6 27.2
2020-Aug-14 15:58 327 1 gusting 8 27.2
2020-Aug-14 15:53 303 0 gusting 8 27.2
2020-Aug-14 15:48 338 1 gusting 5 26.7
2020-Aug-14 15:43 355 1 gusting 8 26.7
2020-Aug-14 15:38 305 2 gusting 8 26.7
2020-Aug-14 15:33 317 1 gusting 8 26.7
2020-Aug-14 15:28 328 1 gusting 5 26.7
2020-Aug-14 15:23 268 0 gusting 5 26.7
2020-Aug-14 15:18 351 0 gusting 5 26.1
2020-Aug-14 15:13 286 0 gusting 5 26.1
2020-Aug-14 15:08 320 0 gusting 5 26.1
2020-Aug-14 15:03 056 0 gusting 5 26.1
2020-Aug-14 14:58 343 1 gusting 5 26.1
2020-Aug-14 14:53 304 0 gusting 4 26.1
2020-Aug-14 14:47 324 0 gusting 3 26.1
2020-Aug-14 14:42 306 1 gusting 7 26.1
2020-Aug-14 14:37 338 2 gusting 8 26.1
2020-Aug-14 14:32 305 1 gusting 8 26.1
2020-Aug-14 14:27 328 1 gusting 8 26.1
2020-Aug-14 14:22 318 1 gusting 8 26.1
2020-Aug-14 14:17 321 1 gusting 8 26.1
2020-Aug-14 14:12 326 0 gusting 5 25.6
2020-Aug-14 14:07 035 1 gusting 7 25.6
2020-Aug-14 14:02 25.6
2020-Aug-14 13:57 314 2 gusting 8 25.6
2020-Aug-14 13:52 348 2 gusting 7 25.0
2020-Aug-14 13:47 348 1 gusting 6 25.0
2020-Aug-14 13:42 343 0 gusting 6 25.0
2020-Aug-14 13:37 25.0
2020-Aug-14 13:32 308 24.4
2020-Aug-14 13:27 325 0 gusting 4 24.4
2020-Aug-14 13:22 316 0 gusting 5 24.4
2020-Aug-14 13:17 320 0 gusting 5 24.4
2020-Aug-14 13:12 348 0 gusting 5 24.4
2020-Aug-14 13:07 351 0 gusting 5 24.4
2020-Aug-14 13:02 338 0 gusting 4 24.4
2020-Aug-14 12:57 054 0 gusting 6 24.4
2020-Aug-14 12:52 333 0 gusting 6 24.4
2020-Aug-14 12:47 333 0 gusting 5 24.4
2020-Aug-14 12:42 329 0 gusting 5 24.4
2020-Aug-14 12:37 025 24.4
2020-Aug-14 12:32 324 0 gusting 3 23.9
2020-Aug-14 12:27 316 0 gusting 3 23.9
2020-Aug-14 12:22 320 23.9
2020-Aug-14 12:17 324 0 gusting 4 23.3
2020-Aug-14 12:12 290 0 gusting 6 23.3
2020-Aug-14 12:07 338 0 gusting 6 23.3
2020-Aug-14 12:02 014 0 gusting 4 23.3
2020-Aug-14 11:57 23.3
2020-Aug-14 11:52 005 23.3
2020-Aug-14 11:47 008 22.8
2020-Aug-14 11:42 323 0 gusting 4 22.8
2020-Aug-14 11:37 324 0 gusting 5 22.8
2020-Aug-14 11:32 338 0 gusting 5 22.8
2020-Aug-14 11:27 310 22.8
2020-Aug-14 11:22 302 22.8
2020-Aug-14 11:17 348 0 gusting 2 22.8
2020-Aug-14 11:12 328 22.8
2020-Aug-14 11:07 338 0 gusting 3 22.8
2020-Aug-14 11:02 338 0 gusting 3 22.8
2020-Aug-14 10:56 297 22.8
2020-Aug-14 10:52 357 22.8
2020-Aug-14 10:46 355 22.8
2020-Aug-14 10:41 312 22.8
2020-Aug-14 10:36 312 22.8
2020-Aug-14 10:32 312 22.8
2020-Aug-14 10:26 312 22.8
2020-Aug-14 10:21 312 22.8
2020-Aug-14 10:16 312 22.8
2020-Aug-14 10:11 324 22.8
2020-Aug-14 10:06 322 22.8
2020-Aug-14 10:01 328 22.8
2020-Aug-14 09:56 328 0 gusting 3 22.8
2020-Aug-14 09:51 306 0 gusting 3 22.8
2020-Aug-14 09:46 338 22.8
2020-Aug-14 09:41 004 22.8
2020-Aug-14 09:36 328 0 gusting 3 22.8
2020-Aug-14 09:31 328 0 gusting 3 22.8
2020-Aug-14 09:26 316 0 gusting 3 22.8
2020-Aug-14 09:21 315 0 gusting 5 22.8
2020-Aug-14 09:16 315 0 gusting 5 22.8
2020-Aug-14 09:11 348 22.8
2020-Aug-14 09:06 317 22.8
2020-Aug-14 09:01 312 0 gusting 3 22.8
2020-Aug-14 08:56 316 0 gusting 3 22.8
2020-Aug-14 08:51 323 0 gusting 3 22.8
2020-Aug-14 08:46 310 1 gusting 6 22.8
2020-Aug-14 08:41 338 1 gusting 6 22.8
2020-Aug-14 08:36 338 0 gusting 4 22.8
2020-Aug-14 08:31 347 0 gusting 4 22.8
2020-Aug-14 08:26 315 0 gusting 4 22.8
2020-Aug-14 08:21 328 0 gusting 4 22.8
2020-Aug-14 08:16 338 0 gusting 3 22.8
2020-Aug-14 08:11 312 0 gusting 3 22.8
2020-Aug-14 08:06 307 0 gusting 4 22.8
2020-Aug-14 08:01 323 0 gusting 4 22.8
2020-Aug-14 07:56 319 0 gusting 3 22.8
2020-Aug-14 07:51 347 0 gusting 5 22.8
2020-Aug-14 07:46 297 0 gusting 5 22.8
2020-Aug-14 07:41 320 22.8
2020-Aug-14 07:36 321 22.8
2020-Aug-14 07:31 328 0 gusting 3 22.8
2020-Aug-14 07:26 311 0 gusting 3 22.8
2020-Aug-14 07:21 315 0 gusting 3 22.8
2020-Aug-14 07:16 296 22.8
2020-Aug-14 07:11 322 22.8
2020-Aug-14 07:06 347 22.8
2020-Aug-14 07:00 347 22.8
2020-Aug-14 06:55 348 22.8
2020-Aug-14 06:50 348 22.8
2020-Aug-14 06:45 349 22.8
2020-Aug-14 06:40 020 22.8
2020-Aug-14 06:35 020 22.8
2020-Aug-14 06:30 020 22.8
2020-Aug-14 06:25 020 22.8
2020-Aug-14 06:20 020 22.8
2020-Aug-14 06:15 020 22.8
2020-Aug-14 06:10 020 22.8
2020-Aug-14 06:05 020 22.8
2020-Aug-14 06:00 047 22.8
2020-Aug-14 05:55 047 22.8
2020-Aug-14 05:50 047 22.8
2020-Aug-14 05:45 038 22.8
2020-Aug-14 05:40 045 22.8
2020-Aug-14 05:35 045 22.8
2020-Aug-14 05:30 050 22.8
2020-Aug-14 05:25 051 23.3
2020-Aug-14 05:20 051 23.3
2020-Aug-14 05:15 051 23.3
2020-Aug-14 05:10 016 23.3
2020-Aug-14 05:05 016 23.3
2020-Aug-14 05:00 016 23.3
2020-Aug-14 04:55 350 23.3
2020-Aug-14 04:50 350 23.3
2020-Aug-14 04:45 350 23.3
2020-Aug-14 04:40 350 23.3
2020-Aug-14 04:35 350 23.3
2020-Aug-14 04:30 350 23.3
2020-Aug-14 04:25 349 23.3
2020-Aug-14 04:20 347 23.3
2020-Aug-14 04:14 038 23.3
2020-Aug-14 04:10 038 23.3
2020-Aug-14 04:05 038 23.3
2020-Aug-14 04:00 038 23.3
2020-Aug-14 03:54 038 23.3
2020-Aug-14 03:49 042 23.3
2020-Aug-14 03:44 042 23.3
2020-Aug-14 03:39 042 23.3
2020-Aug-14 03:34 028 23.3
2020-Aug-14 03:29 049 23.3
2020-Aug-14 03:24 049 23.3
2020-Aug-14 03:19 049 23.3
2020-Aug-14 03:14 049 23.3
2020-Aug-14 03:09 062 23.3
2020-Aug-14 03:04 062 23.3
2020-Aug-14 02:59 069 23.3
2020-Aug-14 02:54 069 23.3
2020-Aug-14 02:49 069 23.3
2020-Aug-14 02:44 069 23.3
2020-Aug-14 02:39 069 23.3
2020-Aug-14 02:34 070 23.3
2020-Aug-14 02:29 070 23.3
2020-Aug-14 02:24 070 23.3
2020-Aug-14 02:19 070 23.3
2020-Aug-14 02:14 070 23.3
2020-Aug-14 02:09 070 23.9
2020-Aug-14 02:04 070 23.9
2020-Aug-14 01:59 070 23.9
2020-Aug-14 01:54 070 23.9
2020-Aug-14 01:49 070 23.9
2020-Aug-14 01:44 070 23.9
2020-Aug-14 01:39 070 23.9
2020-Aug-14 01:34 070 23.9
2020-Aug-14 01:29 070 23.9
2020-Aug-14 01:24 070 24.4
2020-Aug-14 01:19 072 24.4
2020-Aug-14 01:14 070 24.4
2020-Aug-14 01:09 070 24.4
2020-Aug-14 01:04 069 24.4
2020-Aug-14 00:59 070 24.4
2020-Aug-14 00:54 069 24.4
2020-Aug-14 00:49 069 24.4
2020-Aug-14 00:44 070 25.0
2020-Aug-14 00:39 338 25.0
2020-Aug-14 00:29 072 25.0
2020-Aug-14 00:24 074 25.0
2020-Aug-14 00:19 072 25.6
2020-Aug-14 00:14 075 25.6
2020-Aug-14 00:09 338 25.6
2020-Aug-14 00:04 078 25.6
2020-Aug-13 23:08 045 0 gusting 2 27.8
2020-Aug-13 23:03 132 0 gusting 3 27.8
2020-Aug-13 22:58 012 0 gusting 6 27.8
2020-Aug-13 22:53 048 0 gusting 6 27.8
2020-Aug-13 22:48 054 0 gusting 3 27.8
2020-Aug-13 22:43 043 0 gusting 3 27.8
2020-Aug-13 22:38 058 0 gusting 7 28.3
2020-Aug-13 22:33 071 0 gusting 7 28.3
2020-Aug-13 22:28 012 0 gusting 5 28.3
2020-Aug-13 22:23 116 1 gusting 6 28.3
2020-Aug-13 22:18 104 1 gusting 6 28.3
2020-Aug-13 22:13 056 0 gusting 5 28.9
2020-Aug-13 22:08 177 0 gusting 3 28.9
2020-Aug-13 22:03 048 0 gusting 6 28.9
2020-Aug-13 21:58 074 0 gusting 6 28.9
2020-Aug-13 21:53 081 0 gusting 5 28.9
2020-Aug-13 21:48 057 1 gusting 7 28.9
2020-Aug-13 21:43 039 1 gusting 7 29.4
2020-Aug-13 21:38 058 0 gusting 4 29.4
2020-Aug-13 21:33 090 0 gusting 5 29.4
2020-Aug-13 21:28 088 1 gusting 6 29.4
2020-Aug-13 21:23 136 1 gusting 8 29.4
2020-Aug-13 21:18 114 1 gusting 8 29.4
2020-Aug-13 21:13 083 1 gusting 6 29.4
2020-Aug-13 21:08 351 1 gusting 5 29.4
2020-Aug-13 21:03 047 1 gusting 7 29.4
2020-Aug-13 20:58 035 1 gusting 7 29.4
2020-Aug-13 20:53 010 1 gusting 6 28.9
2020-Aug-13 20:48 124 1 gusting 7 28.9
2020-Aug-13 20:43 214 1 gusting 7 28.9
2020-Aug-13 20:38 343 0 gusting 6 28.9
2020-Aug-13 20:33 081 0 gusting 5 28.9
2020-Aug-13 20:28 043 1 gusting 6 28.9
2020-Aug-13 20:23 053 1 gusting 6 28.9
2020-Aug-13 20:18 063 1 gusting 4 28.3
2020-Aug-13 20:12 058 0 gusting 4 28.3
2020-Aug-13 20:07 060 1 gusting 6 28.3
2020-Aug-13 20:02 090 1 gusting 6 28.3
2020-Aug-13 19:58 012 1 gusting 6 28.3
2020-Aug-13 19:52 111 0 gusting 6 28.3
2020-Aug-13 19:47 011 0 gusting 5 28.3
2020-Aug-13 19:42 048 0 gusting 5 28.3
2020-Aug-13 19:37 014 0 gusting 5 28.3
2020-Aug-13 19:32 041 1 gusting 7 28.3
2020-Aug-13 19:27 056 1 gusting 10 28.3
2020-Aug-13 19:22 017 1 gusting 10 28.3
2020-Aug-13 19:17 026 1 gusting 5 28.3
2020-Aug-13 19:12 204 1 gusting 6 28.3
2020-Aug-13 19:07 056 0 gusting 6 27.8
2020-Aug-13 19:02 101 0 gusting 6 27.8
2020-Aug-13 18:57 333 0 gusting 6 27.8
2020-Aug-13 18:52 048 0 gusting 5 27.8
2020-Aug-13 18:47 039 0 gusting 4 27.8
2020-Aug-13 18:42 029 0 gusting 2 27.8
2020-Aug-13 18:37 008 0 gusting 5 27.8
2020-Aug-13 18:32 032 0 gusting 5 27.8
2020-Aug-13 18:27 059 27.2
2020-Aug-13 18:22 058 0 gusting 3 27.2
2020-Aug-13 18:17 055 0 gusting 3 27.2
2020-Aug-13 18:12 064 0 gusting 4 27.2
2020-Aug-13 18:07 243 1 gusting 5 27.2
2020-Aug-13 18:02 066 0 gusting 5 27.2
2020-Aug-13 17:57 074 27.2
2020-Aug-13 17:52 312 0 gusting 5 27.2
2020-Aug-13 17:47 053 1 gusting 5 27.2
2020-Aug-13 17:42 052 0 gusting 3 27.2
2020-Aug-13 17:37 353 0 gusting 3 27.2
2020-Aug-13 17:32 006 0 gusting 3 26.7
2020-Aug-13 17:27 045 0 gusting 4 26.7
2020-Aug-13 17:22 128 0 gusting 4 26.1
2020-Aug-13 17:17 034 0 gusting 5 26.1
2020-Aug-13 17:12 061 0 gusting 5 25.6
2020-Aug-13 17:07 028 0 gusting 3 25.6
2020-Aug-13 17:02 049 0 gusting 2 25.6
2020-Aug-13 16:57 071 25.6
2020-Aug-13 16:52 042 25.0
2020-Aug-13 16:47 006 25.0
2020-Aug-13 16:42 343 25.0
2020-Aug-13 16:37 072 25.0
2020-Aug-13 16:32 101 24.4
2020-Aug-13 16:27 039 24.4
2020-Aug-13 16:22 039 24.4
2020-Aug-13 16:17 042 0 gusting 3 24.4
2020-Aug-13 16:12 042 0 gusting 3 24.4
2020-Aug-13 16:07 046 24.4
2020-Aug-13 16:02 045 24.4
2020-Aug-13 15:57 034 24.4
2020-Aug-13 15:52 047 23.9
2020-Aug-13 15:47 047 23.9
2020-Aug-13 15:42 041 23.9
2020-Aug-13 15:37 037 23.9
2020-Aug-13 15:32 338 0 gusting 3 23.9
2020-Aug-13 15:27 338 23.9
2020-Aug-13 15:22 049 23.9
2020-Aug-13 15:17 045 23.9
2020-Aug-13 15:12 045 23.9
2020-Aug-13 15:06 053 23.9
2020-Aug-13 15:01 049 23.9
2020-Aug-13 14:56 044 23.9
2020-Aug-13 14:51 044 23.3
2020-Aug-13 14:46 120 23.3
2020-Aug-13 14:41 120 23.3
2020-Aug-13 14:36 111 23.9
2020-Aug-13 14:31 089 23.9
2020-Aug-13 14:26 083 23.9
2020-Aug-13 14:21 062 23.9
2020-Aug-13 14:16 031 23.9
2020-Aug-13 14:11 028 0 gusting 3 23.9
2020-Aug-13 14:06 358 23.9
2020-Aug-13 14:01 353 23.9
2020-Aug-13 13:56 353 23.9
2020-Aug-13 13:51 353 23.9
2020-Aug-13 13:46 353 23.3
2020-Aug-13 13:41 353 23.3
2020-Aug-13 13:36 353 23.3
2020-Aug-13 13:31 353 23.3
2020-Aug-13 13:26 353 23.3
2020-Aug-13 13:21 353 23.3
2020-Aug-13 13:16 353 23.3
2020-Aug-13 13:11 353 23.3
2020-Aug-13 13:06 353 23.3
2020-Aug-13 13:01 353 23.3
2020-Aug-13 12:56 353 23.3
2020-Aug-13 12:51 353 23.3
2020-Aug-13 12:46 353 23.3
2020-Aug-13 12:41 353 23.3
2020-Aug-13 12:36 353 23.3
2020-Aug-13 12:31 353 23.3
2020-Aug-13 12:25 353 23.3
2020-Aug-13 12:20 353 23.3
2020-Aug-13 12:15 353 23.3
2020-Aug-13 12:10 353 23.3
2020-Aug-13 12:05 353 23.3
2020-Aug-13 12:00 353 23.3
2020-Aug-13 11:55 353 23.3
2020-Aug-13 11:50 353 23.3
2020-Aug-13 11:45 353 23.3
2020-Aug-13 11:40 353 23.3
2020-Aug-13 11:35 353 23.3
2020-Aug-13 11:30 353 23.3
2020-Aug-13 11:25 353 23.3
2020-Aug-13 11:20 353 23.3
2020-Aug-13 11:15 353 23.3
2020-Aug-13 11:10 353 23.3
2020-Aug-13 11:05 353 23.3
2020-Aug-13 11:00 353 23.3
2020-Aug-13 10:55 353 23.3
2020-Aug-13 10:50 353 23.3
2020-Aug-13 10:45 353 23.3
2020-Aug-13 10:40 353 23.3
2020-Aug-13 10:35 353 23.3
2020-Aug-13 10:30 353 23.3
2020-Aug-13 10:25 353 23.3
2020-Aug-13 10:20 353 23.3
2020-Aug-13 10:15 353 23.3
2020-Aug-13 10:10 353 23.3
2020-Aug-13 10:05 353 23.3
2020-Aug-13 10:00 353 23.3
2020-Aug-13 09:55 353 23.3
2020-Aug-13 09:50 353 23.3
2020-Aug-13 09:45 353 23.3
2020-Aug-13 09:40 353 23.3
2020-Aug-13 09:35 353 23.3
2020-Aug-13 09:30 353 23.3
2020-Aug-13 09:25 353 23.3
2020-Aug-13 09:20 353 23.3
2020-Aug-13 09:15 353 23.3
2020-Aug-13 09:10 353 23.3
2020-Aug-13 09:05 353 23.3
2020-Aug-13 09:00 353 23.3
2020-Aug-13 08:55 353 23.3
2020-Aug-13 08:50 353 23.3
2020-Aug-13 08:40 353 23.3
2020-Aug-13 08:35 353 23.3
2020-Aug-13 08:30 353 23.3
2020-Aug-13 08:25 353 23.3
2020-Aug-13 08:20 353 23.3
2020-Aug-13 08:10 353 23.3
2020-Aug-13 08:05 353 23.3
2020-Aug-13 07:59 353 22.8
2020-Aug-13 07:54 353 23.3
2020-Aug-13 07:49 353 23.3
2020-Aug-13 07:44 353 23.3
2020-Aug-13 07:39 353 23.3
2020-Aug-13 07:34 353 23.3
2020-Aug-13 07:29 353 22.8
2020-Aug-13 07:24 353 22.8
2020-Aug-13 07:19 353 22.8
2020-Aug-13 07:14 353 22.8
2020-Aug-13 07:09 355 22.8
2020-Aug-13 07:04 355 22.8
2020-Aug-13 06:59 355 22.8
2020-Aug-13 06:54 355 22.8
2020-Aug-13 06:49 355 22.8
2020-Aug-13 06:44 355 22.8
2020-Aug-13 06:39 355 22.8
2020-Aug-13 06:34 355 22.8
2020-Aug-13 06:29 355 22.8
2020-Aug-13 06:24 355 22.8
2020-Aug-13 06:19 355 22.8
2020-Aug-13 06:14 355 22.8
2020-Aug-13 06:09 355 22.8
2020-Aug-13 06:04 355 22.8
2020-Aug-13 05:59 355 22.8
2020-Aug-13 05:54 355 22.8
2020-Aug-13 05:49 355 22.8
2020-Aug-13 05:44 355 22.8
2020-Aug-13 05:39 355 22.8
2020-Aug-13 05:34 355 22.8
2020-Aug-13 05:29 355 22.8
2020-Aug-13 05:24 355 22.8
2020-Aug-13 05:19 355 23.3
2020-Aug-13 05:14 355 23.3
2020-Aug-13 05:09 355 23.3
2020-Aug-13 05:04 355 23.3
2020-Aug-13 04:59 355 22.8
2020-Aug-13 04:53 355 22.8
2020-Aug-13 04:48 355 22.8
2020-Aug-13 04:43 355 22.8
2020-Aug-13 04:38 355 22.8
2020-Aug-13 04:33 355 23.3
2020-Aug-13 04:28 355 23.3
2020-Aug-13 04:23 355 23.3
2020-Aug-13 04:18 355 23.3
2020-Aug-13 04:13 355 23.3
2020-Aug-13 04:08 355 23.3
2020-Aug-13 04:03 355 23.3
2020-Aug-13 03:58 355 23.3
2020-Aug-13 03:53 355 23.3
2020-Aug-13 03:48 355 23.3
2020-Aug-13 03:43 355 22.8
2020-Aug-13 03:38 355 22.8
2020-Aug-13 03:33 355 22.8
2020-Aug-13 03:28 355 22.8
2020-Aug-13 03:18 355 22.8
2020-Aug-13 03:13 355 22.8
2020-Aug-13 03:08 355 22.8
2020-Aug-13 03:03 355 22.8
2020-Aug-13 02:58 355 22.8
2020-Aug-13 02:53 355 22.8
2020-Aug-13 02:48 22.8
2020-Aug-13 02:43 22.8
2020-Aug-13 02:38 22.8
2020-Aug-13 02:33 020 22.8
2020-Aug-13 02:28 020 22.8
2020-Aug-13 02:23 255 22.8
2020-Aug-13 02:18 255 22.8
2020-Aug-13 02:13 255 22.8
2020-Aug-13 02:08 252 22.8
2020-Aug-13 02:03 252 22.8
2020-Aug-13 01:58 252 22.8
2020-Aug-13 01:53 252 22.8
2020-Aug-13 01:48 252 22.8
2020-Aug-13 01:43 252 22.8
2020-Aug-13 01:38 158 0 gusting 2 22.8
2020-Aug-13 01:33 156 0 gusting 2 22.8
2020-Aug-13 01:28 160 22.8
2020-Aug-13 01:23 133 22.8
2020-Aug-13 01:18 049 22.8
2020-Aug-13 01:13 042 22.8
2020-Aug-13 01:08 042 23.3
2020-Aug-13 01:02 042 22.8
2020-Aug-13 00:57 042 22.8
2020-Aug-13 00:53 042 23.3
2020-Aug-13 00:47 042 23.3
2020-Aug-13 00:42 042 23.3
2020-Aug-13 00:37 042 23.3
2020-Aug-13 00:32 042 23.3
2020-Aug-13 00:27 037 23.3
2020-Aug-13 00:22 037 23.3
2020-Aug-13 00:17 031 23.3
2020-Aug-13 00:12 311 23.3
2020-Aug-13 00:07 320 23.3
2020-Aug-13 00:02 320 23.9
2020-Aug-12 23:57 015 23.9
2020-Aug-12 23:52 016 23.9
2020-Aug-12 23:47 347 23.9
2020-Aug-12 23:42 347 0 gusting 4 24.4
2020-Aug-12 23:37 338 1 gusting 6 24.4
2020-Aug-12 23:32 317 1 gusting 6 25.0
2020-Aug-12 23:27 338 0 gusting 5 25.6
2020-Aug-12 23:22 316 1 gusting 12 25.6
2020-Aug-12 23:17 338 2 gusting 12 26.1
2020-Aug-12 23:12 338 2 gusting 11 26.7
2020-Aug-12 23:07 343 3 gusting 11 27.2
2020-Aug-12 23:02 348 2 gusting 10 27.8
2020-Aug-12 22:57 287 1 gusting 11 28.3
2020-Aug-12 22:52 291 2 gusting 11 28.9
2020-Aug-12 22:47 010 3 gusting 13 28.9
2020-Aug-12 22:42 033 1 gusting 13 29.4
2020-Aug-12 22:37 087 1 gusting 7 29.4
2020-Aug-12 22:32 139 1 gusting 8 30.0
2020-Aug-12 22:27 107 1 gusting 8 30.0
2020-Aug-12 22:22 124 1 gusting 7 30.0
2020-Aug-12 22:17 136 1 gusting 7 30.6
2020-Aug-12 22:12 152 1 gusting 7 30.6
2020-Aug-12 22:07 143 1 gusting 7 30.6
2020-Aug-12 22:02 133 0 gusting 5 30.6
2020-Aug-12 21:57 168 1 gusting 9 31.1
2020-Aug-12 21:52 166 1 gusting 9 31.1
2020-Aug-12 21:47 136 1 gusting 4 31.7
2020-Aug-12 21:42 156 1 gusting 6 31.7
2020-Aug-12 21:37 152 1 gusting 8 31.7
2020-Aug-12 21:32 135 0 gusting 8 31.7
2020-Aug-12 21:27 116 0 gusting 4 31.7
2020-Aug-12 21:22 139 0 gusting 4 31.7
2020-Aug-12 21:17 153 0 gusting 3 31.7
2020-Aug-12 21:12 172 0 gusting 4 31.7
2020-Aug-12 21:07 198 1 gusting 4 32.2
2020-Aug-12 21:02 159 1 gusting 8 32.2
2020-Aug-12 20:57 160 1 gusting 8 32.8
2020-Aug-12 20:52 141 1 gusting 7 32.8
2020-Aug-12 20:47 160 1 gusting 4 33.3
2020-Aug-12 20:42 203 0 gusting 4 33.3
2020-Aug-12 20:37 124 0 gusting 6 33.3
2020-Aug-12 20:32 130 0 gusting 6 33.3
2020-Aug-12 20:27 101 0 gusting 5 33.3
2020-Aug-12 20:21 142 33.3
2020-Aug-12 20:16 183 33.3
2020-Aug-12 20:11 240 0 gusting 2 33.3
2020-Aug-12 20:06 240 0 gusting 3 33.3
2020-Aug-12 20:01 187 0 gusting 5 33.3
2020-Aug-12 19:56 190 33.3
2020-Aug-12 19:51 144 0 gusting 5 33.3
2020-Aug-12 19:46 179 1 gusting 5 33.3
2020-Aug-12 19:41 189 0 gusting 3 33.3
2020-Aug-12 19:36 149 0 gusting 3 32.8
2020-Aug-12 19:31 083 0 gusting 3 32.8
2020-Aug-12 19:26 123 1 gusting 6 32.8
2020-Aug-12 19:21 148 0 gusting 6 32.8
2020-Aug-12 19:16 110 0 gusting 6 32.8
2020-Aug-12 19:11 135 0 gusting 6 32.8
2020-Aug-12 19:06 107 0 gusting 4 32.8
2020-Aug-12 19:01 104 32.8
2020-Aug-12 18:56 203 32.8
2020-Aug-12 18:51 209 0 gusting 4 32.8
2020-Aug-12 18:46 178 0 gusting 4 32.8
2020-Aug-12 18:41 154 0 gusting 3 32.8
2020-Aug-12 18:36 165 0 gusting 3 32.2
2020-Aug-12 18:31 153 32.2
2020-Aug-12 18:26 153 0 gusting 3 32.2
2020-Aug-12 18:21 133 0 gusting 6 32.2
2020-Aug-12 18:16 175 0 gusting 6 32.2
2020-Aug-12 18:11 116 0 gusting 6 32.2
2020-Aug-12 18:06 161 32.2
2020-Aug-12 18:01 155 31.7
2020-Aug-12 17:56 127 31.7
2020-Aug-12 17:51 136 31.7
2020-Aug-12 17:46 136 0 gusting 3 31.7
2020-Aug-12 17:41 136 31.7
2020-Aug-12 17:36 155 0 gusting 4 31.7
2020-Aug-12 17:31 156 0 gusting 4 31.7
2020-Aug-12 17:26 101 0 gusting 3 31.7
2020-Aug-12 17:21 118 0 gusting 4 31.7
2020-Aug-12 17:16 077 0 gusting 4 31.7
2020-Aug-12 17:11 143 0 gusting 5 31.7
2020-Aug-12 17:06 141 0 gusting 5 31.7
2020-Aug-12 17:01 162 0 gusting 3 31.1